565  
ASUS41 KOKX 251308  
RWROKX  
 
REGIONAL WEATHER ROUNDUP  
NATIONAL WEATHER SERVICE NEW YORK NY  
800 AM EST SAT FEB 25 2017  
 
NOTE: "FAIR" INDICATES FEW OR NO CLOUDS BELOW 12,000 FEET WITH NO  
SIGNIFICANT WEATHER AND/OR S TO VISIBILITY
.  
 
NYZ071-072-176-178-NJZ106-104-251400-  
NEW YORK CITY METRO AREA  
 
CITY SKY/WX TMP DP RH WIND PRES REMARKS
 
CENTRAL PARK CLOUDY 51 50 96 S5 29.79F FOG  
WALL ST HELIPT NOT AVBL  
LAGUARDIA APRT FOG 52 51 97 S5 29.77F VSB 1/4  
KENNEDY INTL FOG 50 50 100 SE5 29.79F VSB 1/4  
BREEZY POINT N/A 45 N/A N/A E6G12 N/A  
NEWARK/LIBERTY FOG 50 49 96 E5 29.76F VSB 1/8  
TETERBORO PTSUNNY 54 52 93 SE9 29.75F FOG  

 
 
NYZ177-179-078>081-251400-  
LONG ISLAND NEW YORK  
 
CITY SKY/WX TMP DP RH WIND PRES REMARKS
 
JONES BEACH N/A 46 N/A N/A SE5 N/A  
MATINECOCK PT NOT AVBL  
FARMINGDALE FOG 51 51 100 SE6 29.79F VSB<1/4  
MACARTHUR/ISP FOG 53 53 100 SE6 29.80S VSB 1/16  
SHIRLEY FOG 53 53 100 SE3 29.81F VSB 1/4  
WESTHAMPTON MOSUNNY 54 53 97 S5 29.83F  
SOUTHAMPTON NOT AVBL  
BRIDGEHAMPTON NOT AVBL  
EAST HAMPTON N/A 53 51 94 SE8 29.83S  
MONTAUK N/A 50 50 100 CALM 29.85F  

 
 
NYZ052-065-067-251400-  
HUDSON VALLEY  
 
CITY SKY/WX TMP DP RH WIND PRES REMARKS
 
WHITE PLAINS FOG 52 52 100 SE8 29.77S VSB 1/8  
NEWBURGH PTSUNNY 61 57 88 S7 29.74F  
MONTGOMERY CLOUDY 61 56 83 S8 29.71S  
POUGHKEEPSIE PTSUNNY 60 55 83 S9 29.72F  
ALBANY PTSUNNY 61 53 75 S20G28 29.68S  

 
 
NJZ001-105-106-008-010-013-015-019>022-104-251400-  
NEW JERSEY  
 
CITY SKY/WX TMP DP RH WIND PRES REMARKS
 
NEWARK/LIBERTY FOG 50 49 96 E5 29.76F VSB 1/8  
TETERBORO PTSUNNY 54 52 93 SE9 29.75F FOG  
CALDWELL CLOUDY 58 54 86 S7 29.75F  
SOMERVILLE CLOUDY 57 55 93 SE5 29.72F  
LINDEN NOT AVBL  
SUSSEX CLOUDY 61 56 83 VRB6 29.72F  
ANDOVER N/A 59 54 83 VRB7 29.71F  
TRENTON MOSUNNY 57 56 96 S9 29.73F  
MILLVILLE SUNNY 58 57 97 VRB5 29.75F  
ATLANTIC CITY CLOUDY 53 52 96 SE5 29.77S FOG  
WRIGHTSTOWN MOSUNNY 58 56 93 S8 29.73F  
TOMS RIVER PTSUNNY 55 54 96 S9 29.77F  
BELMAR FOG 51 51 100 S7 29.78F VSB 1/2  

 
 
PAZ047>061-062-071-251400-  
EASTERN PENNSYLVANIA  
 
CITY SKY/WX TMP DP RH WIND PRES REMARKS
 
PHILADELPHIA PTSUNNY 59 55 87 SE6 29.73F  
ALLENTOWN CLOUDY 63 56 78 S13 29.69F  
SCRANTON MOSUNNY 61 56 83 S8G16 29.63F  

 
 
CTZ002-004>006-009-010-012-RIZ004-006-007-MAZ004-011-015-251400-  
SOUTHERN NEW ENGLAND  
IN CT  
 
CITY SKY/WX TMP DP RH WIND PRES REMARKS
 
BRADLEY INTL CLOUDY 56 55 97 S8 29.80R FOG  
HARTFORD CLOUDY 56 55 97 S12 29.80S  
DANBURY FOG 54 53 97 SE10 29.79S VSB 3/4  
WTRBURY/OXFORD FOG 54 50 87 S6 29.82R VSB 1/4  
BRIDGEPORT FOG 48 46 93 NE5 29.81S VSB<1/4  
MERIDEN FOG 55 53 93 S6 29.81R VSB 1/4  
NEW HAVEN FOG 50 50 100 E3 29.82R VSB 1/4  
CHESTER FOG 52 52 100 SE7 29.82S VSB<1/4  
GROTON FOG 50 49 96 E5 29.83F VSB 1  
WILIMANTIC CLOUDY 56 54 93 S8 29.83S FOG  
 
IN RI  
 
CITY SKY/WX TMP DP RH WIND PRES REMARKS
 
PROVIDENCE FOG 50 49 96 SE7 29.86S VSB 1/4  
BLOCK ISLAND NOT AVBL  
WESTERLY FOG 51 48 89 SE6 29.85F VSB 1/4  
IN MA  
 
CITY SKY/WX TMP DP RH WIND PRES REMARKS
 
BOSTON PTSUNNY 53 53 100 S12 29.85S  
WORCESTER FOG 54 53 97 S10 29.82S VSB 1/4  
WESTFIELD CLOUDY 56 56 100 S10 29.78S FOG  
PROVINCETOWN SUNNY 52 52 100 S10 29.89R  
NANTUCKET PTSUNNY 48 46 93 SE8 29.89S  

 
 
ANZ330-335-338-340-345-350-353-355-251400-  
COASTAL MARINE OBSERVATIONS  
 
 
STATION/POSITION TIME SKY/WX TEMP WIND PRES VSBY WAVE
 
AIR SEA DIR/SP/G HT/PER  
(UTC) (F) (DEG/KT/KT) (MB) (MI) (FT/S)  
NY HARB ENTRANCE 1150 45 44 160/ 10/ 12 1008.2 4/11  
20 S FIRE ISLAND 1150 48 43 150/ 10/ 12 1008.8 4/10  
GREAT SOUTH BAY NOT AVBL  
23 SSW MONTAUK P 1150 47 44 1010.6 3/10  
15 E BARNEGAT LI 1230 44 N/A 5/ 9  
HUDSON CANYON 1150 47 1009.7 5/11  
KINGS POINT 1224 49 40 1008.4  
EXECUTION ROCKS NOT AVBL  
CENTRAL LI SOUND 1230 44 110/ 8/ 10 N/A 0  
EASTERN LI SOUND NOT AVBL  
ROBBINS REEF 1236 46 160/ 8/ 9 1008.4  

 
 
>>>>>>>>>>>>>>>>>>>>>>>>>>>> KEY <<<<<<<<<<<<<<<<<<<<<<<<<<<  
> <  
> SKY/WX - SKY CONDITION/PRESENT WEATHER <  
> TMP - TEMPERATURE IN FAHRENHEIT <  
> DP - DEW POINT IN FAHRENHEIT <  
> RH - RELATIVE HUMIDITY IN PERCENT <  
> WIND - DIRECTION (FROM) AND SPEED IN MPH <  
> PRES - MEAN SEA LEVEL PRESSURE (INCHES OF HG) <  
> WCI - WIND CHILL INDEX <  
> VSB - VISIBILITY IN MILES <  
> HX - HEAT INDEX <  
> TC - TEMPERATURE IN CELSIUS <  
> VRB - VARIABLE WIND DIRECTION <  
> <  
>>>>>>>>>>>>>>>>>>>>>>>>>>>> KEY <<<<<<<<<<<<<<<<<<<<<<<<<<<  
 
 
CLICK HERE TO GO TO PREVIOUS BULLETINS.

The Nexlab NY Page
The Nexlab NJ Page
The Nexlab CT Page Main Text Page